MyTimes logo

TIMES

Webb Imagery

22/02/2004
Cowes Classic
500m Swim / 4.0km Run - Local Residents

(Click on competitor name to view personalised results)

Name
Race #
Category
Team Name
Time
(h:mm:ss)
Avg Speed
km/hr
OAll
Place
Cat
Place
EVANS Brad#36Local Senior Male0:24:47 10.9 11
FLEISNER Rob#230Local 40-49 Male0:25:04 10.8 21
PAGE Steve#267Local 40-49 Male0:25:10 10.7 32
MC GRATH Stephanie#55Local Senior Female0:25:28 10.6 41
DALLINGER Andrew#54Local Senior Male0:25:40 10.5 52
YUSKO Bill#238Local 50+ Male0:25:51 10.4 61
MC HENRY David#251Local Junior Male0:26:16 10.3 71
HANLEY Philip#273Local 50+ Male0:26:46 10.1 82
HEWETT Noel#231Local 40-49 Male0:27:25 9.8 93
AITKEN Nick#269Local Junior Male0:27:34 9.8 102
SPOTTISWOOD James#65Local Senior Male0:27:44 9.7 113
MARSHALL Luke#34Local Senior Male0:27:59 9.6 124
OSMOND Travis#79Local Senior Male0:28:25 9.5 135
PAGE Troy#266Local Junior Male0:28:53 9.3 143
CARTER Lachlan#250Local Junior Male0:29:08 9.3 154
SCHEPEMAKER Nick#52Local Senior Male0:29:27 9.2 166
VERNON Beau#275Local Junior Male0:29:43 9.1 175
MARTIN Brian#263Local 40-49 Male0:30:41 8.8 184
DAVIE Angie#205Local 40-49 Female0:30:45 8.8 191
MC DONAGH Andrew#86Local Senior Male0:30:53 8.7 207
RODGERS Adam#66Local Senior Male0:30:55 8.7 218
HUGHES Jed#270Local Junior Male0:31:01 8.7 226
FLEISNER Paul#240Local 50+ Male0:31:06 8.7 233
CARTER Dean#242Local 50+ Male0:31:11 8.7 244
EVANS Bree#43Local Senior Female0:31:21 8.6 252
BEISCHER David#272Local 40-49 Male0:31:24 8.6 265
JALANDO-ON Mark#56Local Senior Male0:31:31 8.6 279
MANNING John#84Local Senior Male0:31:37 8.5 2810
THURGOOD Neville#20Local Senior Male0:31:42 8.5 2911
BUTT Chloe#212Local Junior Female0:32:14 8.4 301
MATTHEWS Bob#235Local 50+ Male0:32:23 8.3 315
KELSEY David#47Local Senior Male0:32:26 8.3 3212
KEADY Richard#274Local 50+ Male0:32:56 8.2 336
HORNSBY Tony#88Local Senior Male0:32:58 8.2 3413
DALLINGER Brian#241Local 50+ Male0:32:58 8.2 357
CUTHBERTSON Diddy#13Local Senior Female0:33:14 8.1 363
STOOPMAN Jo#14Local Senior Female0:33:25 8.1 374